STARLINK-35006, 65284

Orbit data source: Space-Track

STARLINK-35006, 65284 is a payload satellite owned by SpaceX/Seattle (US) in SSO that was launched on Fri, 22 Aug 2025 UTC via an FALCON 9 launch vehicle from the Air Force Western Test Range (AFWTR). Payload-class satellites include a variety of spacecraft equipped with specific instruments for various scientific and technological missions. These include communications satellites like Starlink; space stations such as the ISS; scientific satellites like the Hubble; Earth observation satellites from companies like Planet Labs, Umbra, and HawkEye 360; GPS; miniature CubeSats for education and research; and military/defense satellites.

Loading next visibility...
Identifier
65284, 2025-184M
Orbit
SSO
Country
Flag of USUS
Related business
Manufacturer
SpaceX/Seattle
Mission
Operational Commercial Communications
Bus & Motor
STARLINK V2MO, Unknown motor
Mass
575 kg wet, ~530 kg dry
Launch date (UTC)
2025-08-22 (10 months ago)
Launch vehicle
FALCON 9
Launch site
Air Force Western Test Range (AFWTR)
Object type
Payload
Rocket body
Debris
Shape & HBR
Box + 2 Pan, 17.7 m
Radar Cross Section
36.964 m², Large (>1 m²)

Expand to show TLE details & history
Last TLE update: 11 hours ago

TLE from 11 hours ago
0 STARLINK-35006
1 65284U 25184M   26171.38440087  .00005339  00000-0  37364-3 0  9992
2 65284  97.3356 222.7981 0002321 121.3146 238.8309 15.05657333 46750
Epoch: 2026-06-20T09:13Z
TLE epoch observation values (Epoch: 2026-06-20T09:13:32.235Z)
Latitude
-0°
Longitude
175.81399°
Altitude
553.394 km
Speed
7.585 km/s
True Right ascension
14h 51m 11s
True Declination
0° 00' 00"
Sunlit
Object was in full shadow at epoch
Visualization orbit readout
Latitude
Unknown
Longitude
Unknown
Altitude
Unknown
Speed
Unknown
Apparent Right ascension
Unknown
Apparent Declination
Unknown
Sunlit
N/A
Visualization observer readout
Local Sidereal Time
07:21:08
Azimuth
Unknown
Elevation
Unknown
Doppler factor
Unknown
Orbital elements
Apogee altitude
548.078 km
Perigee altitude
544.863 km
Semi-major axis
6,924.608 km
Eccentricity
0.00023
Inclination
97.3356°
RAAN
222.7981°
Arg. of periapsis
121.3146°
True anomaly
238.80815°
Mean anomaly
238.8309°
Eccentric anomaly
238.81952°
Mean motion
3.76661 °/min
Orbital period
95.58 mins
BSTAR
0.00037364
Loading maneuver chart data...
Computing Atmospheric mass density...
Loading historical data...
Loading historical data...
Loading historical data...
Loading historical data...
Loading historical data...
Loading historical data...
Loading historical data...

Documentation

Showing up to 5 results
|